Louisville Bowman, KY

5:58 AM EST on November 21, 2017 (GMT -0500)
Bowman

Weather History for KLOU - December, 2011

Change the Weather History Date:

Saturday, December 31, 2011

  Actual Average Record
Temperature  
Mean Temperature 48 °F 35 °F  
Max Temperature 52 °F 43 °F 71 °F (1951)
Min Temperature 43 °F 27 °F 2 °F (1976)
Degree Days  
Heating Degree Days 17 30  
Month to date heating degree days 685 862  
Since 1 July heating degree days 1380 1664  
Cooling Degree Days 0 0  
Month to date cooling degree days 0 0  
Year to date cooling degree days 1725 1444  
Moisture  
Dew Point 37 °F    
Average Humidity 61    
Maximum Humidity 76    
Minimum Humidity 46    
Precipitation  
Precipitation 0.00 in 0.11 in 1.56 in (1975)
Month to date precipitation 5.17 4.01  
Year to date precipitation 69.82 45.54  
Sea Level Pressure  
Sea Level Pressure 30.00 in    
Wind  
Wind Speed 6 mph (WSW)    
Max Wind Speed 22 mph    
Max Gust Speed 28 mph    
Visibility 10 miles    
Events      
T = Trace of Precipitation, MM = Missing Value Source: NWS Daily Summary

Daily Weather History Graph

Daily Weather History Graph

Search for Another Location

Airport or City:

Trip Planner

Search our weather history database for the weather conditions in past years. The results will help you decide how hot, cold, wet, or windy it might be!

Date:

Astronomy

Dec. 31, 2011 Rise Set
Actual Time 7:59 AM EST 5:32 PM EST
Civil Twilight 7:29 AM EST 6:01 PM EST
Nautical Twilight 6:56 AM EST 6:34 PM EST
Astronomical Twilight 6:24 AM EST 7:06 PM EST
Moon 11:50 AM EST (12/31) 12:00 AM EST (12/31)
Length of Visible Light 10h 32m
Length of Day
9h 33m
Waxing Crescent, 45% of the Moon is Illuminated
Dec 31
Waxing Crescent
Jan 1
First Quarter
Jan 9
Full
Jan 16
Last Quarter
Jan 23
New

Hourly Weather History & Observations

Time (EST) Temp. Windchill Dew Point Humidity Pressure Visibility Wind Dir Wind Speed Gust Speed Precip Events Conditions
12:53 AM 51.1 °F - 36.0 °F 56% 29.81 in 10.0 mi West 10.4 mph 19.6 mph N/A   Overcast
1:53 AM 50.0 °F - 37.0 °F 61% 29.84 in 10.0 mi West 13.8 mph 20.7 mph N/A   Overcast
2:53 AM 48.0 °F - 37.0 °F 66% 29.88 in 10.0 mi West 16.1 mph 23.0 mph N/A   Overcast
3:17 AM 48.2 °F - 37.4 °F 66% 29.88 in 10.0 mi West 13.8 mph 27.6 mph N/A   Overcast
3:53 AM 46.9 °F - 37.9 °F 71% 29.91 in 10.0 mi West 9.2 mph - N/A   Overcast
4:53 AM 46.4 °F 42.4 °F 37.4 °F 71% 29.93 in 10.0 mi West 8.1 mph - N/A   Overcast
5:33 AM 46.4 °F 41.1 °F 37.4 °F 71% 29.95 in 10.0 mi West 11.5 mph - N/A   Overcast
5:53 AM 46.0 °F 41.9 °F 37.9 °F 73% 29.96 in 10.0 mi West 8.1 mph - N/A   Overcast
6:29 AM 44.6 °F 39.7 °F 37.4 °F 76% 29.98 in 10.0 mi West 9.2 mph - N/A   Overcast
6:37 AM 46.4 °F 41.5 °F 37.4 °F 71% 29.99 in 10.0 mi West 10.4 mph - N/A   Overcast
6:53 AM 44.6 °F 38.8 °F 37.4 °F 76% 29.99 in 10.0 mi West 11.5 mph - N/A   Overcast
7:53 AM 45.0 °F 40.1 °F 36.0 °F 71% 30.02 in 10.0 mi WNW 9.2 mph - N/A   Overcast
8:53 AM 44.1 °F 39.5 °F 35.1 °F 71% 30.06 in 10.0 mi West 8.1 mph - N/A   Overcast
9:53 AM 44.1 °F 41.5 °F 36.0 °F 73% 30.09 in 10.0 mi WSW 4.6 mph - N/A   Overcast
10:53 AM 45.0 °F 41.2 °F 36.0 °F 71% 30.12 in 10.0 mi West 6.9 mph - N/A   Overcast
11:53 AM 46.0 °F 43.9 °F 36.0 °F 68% 30.10 in 10.0 mi SSW 4.6 mph - N/A   Overcast
12:53 PM 48.0 °F - 37.0 °F 66% 30.09 in 10.0 mi South 5.8 mph - N/A   Overcast
1:53 PM 48.9 °F - 37.0 °F 64% 30.06 in 10.0 mi South 4.6 mph - N/A   Scattered Clouds
2:53 PM 50.0 °F - 37.0 °F 61% 30.05 in 10.0 mi Calm Calm - N/A   Clear
3:53 PM 51.1 °F - 37.0 °F 59% 30.06 in 10.0 mi South 6.9 mph - N/A   Clear
4:53 PM 51.1 °F - 37.9 °F 61% 30.06 in 10.0 mi South 5.8 mph - N/A   Clear
5:53 PM 51.1 °F - 37.9 °F 61% 30.04 in 10.0 mi Calm Calm - N/A   Clear
6:53 PM 46.9 °F - 37.9 °F 71% 30.04 in 10.0 mi Calm Calm - N/A   Clear
7:53 PM 46.9 °F - 37.9 °F 71% 30.03 in 10.0 mi Calm Calm - N/A   Clear
8:53 PM 46.0 °F 44.8 °F 37.0 °F 71% 30.02 in 10.0 mi South 3.5 mph - N/A   Clear
9:53 PM 46.0 °F 43.9 °F 37.0 °F 71% 30.00 in 10.0 mi SSE 4.6 mph - N/A   Clear
10:53 PM 44.1 °F - 36.0 °F 73% 29.99 in 10.0 mi Calm Calm - N/A   Clear
11:53 PM 46.4 °F 44.3 °F 35.6 °F 66% 29.96 in 10.0 mi South 4.6 mph - N/A   Clear